Wetbulb
49.51 45.27 40.80 42.16 43.19 42.51 42.77 42.13 41.99 42.51 42.57 40.62 37.47 35.70 36.29 38.07 38.77 38.15 38.30 38.40 38.66 39.08 41.64 42.98 43.73 44.30 44.08 43.93 43.71 43.75 43.82 44.28 45.12 45.58 44.60 44.57 44.10 45.67 46.69 47.89 47.83 47.90 48.58 49.61
47.25 40.88 42.90 43.24 43.65 43.37 43.03 41.30 39.89 41.21 42.58 40.35 37.48 34.90 36.43 37.70 37.76 37.89 37.70 37.81 38.06 39.23 40.47 41.79 42.53 42.66 42.40 42.39 43.41 44.31 44.55 45.55 45.80 46.42 46.24 46.16 45.89 46.06 46.32 47.07 47.06 47.24 47.58 48.65
42.09 41.35 43.28 42.99 41.63 40.44 41.90 38.34 37.11 36.89 39.98 40.21 38.27 34.56 34.69 37.14 38.27 38.44 38.39 38.49 38.99 39.08 39.39 40.30 40.67 41.11 42.71 41.92 43.18 43.65 45.09 45.48 45.16 45.53 45.45 46.02 46.06 46.22 45.67 46.42 46.43 47.13 46.81 47.39
42.70 44.13 42.69 41.82 39.82 39.40 40.07 40.27 38.45 37.67 37.42 35.83 38.24 31.99 33.65 34.53 35.04 36.01 36.42 37.27 38.15 39.23 40.06 40.34 40.37 40.92 41.54 43.10 44.62 44.21 44.41 44.52 44.90 45.12 43.69 43.03 42.24 41.49 43.87 44.06 45.90 46.25 46.94 46.47
38.84 40.60 39.10 38.86 38.23 39.70 38.21 39.84 38.90 38.35 37.85 37.41 35.77 32.99 31.56 34.49 31.78 32.99 35.18 36.75 38.18 39.36 39.57 39.13 39.65 41.44 42.12 43.84 44.01 44.97 44.95 44.94 44.68 44.55 44.10 42.99 41.80 43.18 44.42 44.63 44.42 45.00 44.93 46.53
40.97 43.74 39.56 38.67 40.75 40.09 40.50 39.67 40.16 39.26 38.82 33.78 33.27 31.81 28.74 29.72 30.98 32.69 35.06 36.59 37.82 38.72 39.17 39.74 41.18 42.03 42.12 43.08 43.59 43.88 43.59 43.09 43.44 42.75 42.78 41.92 41.47 42.02 41.85 42.21 42.24 43.29 44.07 44.89
40.55 38.39 40.03 40.21 39.03 40.90 38.54 36.95 34.66 33.15 32.92 31.18 34.47 31.68 29.51 32.62 33.86 34.03 34.30 35.97 37.74 38.80 39.38 39.99 40.04 40.40 40.96 41.62 41.88 42.27 42.05 41.86 41.85 41.36 41.33 41.17 41.12 41.09 40.96 41.61 41.54 41.80 42.39 43.66
38.17 37.36 36.49 38.95 36.15 33.73 35.82 35.00 30.30 22.89 26.46 28.22 34.36 29.11 29.65 34.36 35.45 36.05 36.67 37.13 38.12 38.76 39.55 39.79 40.15 40.29 40.82 40.79 41.05 41.34 41.04 40.22 40.66 40.55 40.39 40.72 40.73 40.49 40.59 40.87 41.12 41.75 42.66 43.49
35.82 35.09 38.18 37.28 38.46 37.05 34.61 30.68 33.82 29.47 32.59 29.04 32.90 31.87 33.67 34.58 33.61 34.58 34.99 36.07 37.21 38.38 39.24 39.02 39.83 40.38 40.08 40.34 40.00 40.22 40.16 39.98 39.95 39.85 39.98 39.55 39.68 39.48 39.44 40.23 41.08 41.07 41.48 42.35
36.76 34.67 35.93 36.09 38.61 37.79 34.75 35.43 29.82 31.68 21.96 21.02 28.83 28.34 25.77 29.26 30.66 32.69 33.32 34.78 37.14 38.90 38.43 39.15 39.03 39.87 39.72 39.51 39.72 40.59 40.98 39.33 39.26 39.54 39.44 39.51 39.24 39.43 39.35 39.69 39.51 40.45 40.98 41.34
37.55 35.69 34.68 36.80 32.68 30.97 32.77 30.74 31.74 30.51 28.46 21.79 21.72 26.01 32.11 30.72 31.98 31.70 33.28 35.48 37.29 37.68 38.16 38.22 39.46 39.26 38.95 39.30 39.59 39.88 39.15 38.50 38.30 38.84 39.16 39.33 39.81 40.47 40.52 39.66 39.58 40.05 40.84 41.17
37.30 36.18 33.32 30.64 33.54 34.76 33.31 30.42 30.48 25.52 23.15 26.70 23.26 24.40 34.20 33.34 33.60 33.68 34.09 36.35 37.75 38.20 37.92 38.93 39.14 38.30 38.10 38.56 38.58 38.17 37.98 37.48 37.89 38.93 39.50 40.13 41.39 42.45 42.42 41.89 41.64 41.05 40.31 41.26
37.58 35.68 33.51 29.52 31.25 34.12 30.28 29.82 29.47 28.25 27.39 24.69 19.06 25.42 34.46 34.02 33.22 34.04 34.09 36.34 36.97 37.10 37.59 38.40 38.20 37.06 37.54 37.80 37.73 37.37 37.20 37.28 38.34 39.06 39.92 41.59 41.68 41.66 41.67 42.14 43.18 42.66 41.66 41.12
38.36 35.20 32.67 30.05 29.77 30.16 28.22 27.55 28.04 27.89 24.21 22.85 24.49 25.31 29.08 30.90 31.02 32.80 34.61 35.52 36.22 36.60 37.55 37.57 36.52 36.67 37.28 37.38 36.94 36.48 36.80 38.39 39.13 39.56 41.23 40.89 40.93 40.98 41.24 42.78 43.37 43.97 42.71 41.65
36.58 32.83 32.67 30.38 29.71 29.72 28.60 27.57 27.65 24.52 26.78 21.37 24.74 24.81 29.15 30.32 31.29 32.95 35.14 35.98 35.25 35.79 36.72 36.64 35.30 36.12 36.94 36.22 36.09 36.45 37.61 38.67 40.89 40.96 40.90 40.75 41.15 40.93 40.67 40.52 42.87 43.31 43.38 42.38
35.46 33.24 31.63 29.56 29.42 29.13 26.95 28.44 28.69 28.90 28.10 27.16 27.20 26.70 32.09 33.19 34.06 33.66 34.33 34.35 34.31 35.32 36.37 35.86 35.64 36.08 35.76 35.85 35.80 36.38 37.30 39.55 41.13 40.41 40.19 40.80 40.79 40.31 39.89 40.05 39.84 40.95 42.50 43.31
33.52 33.04 31.04 30.52 28.12 27.92 26.35 29.06 28.07 28.39 29.65 27.91 23.75 27.69 31.76 30.95 31.88 33.30 34.82 34.21 34.19 35.46 36.29 34.83 35.28 35.49 35.53 36.11 36.64 36.44 37.80 41.06 40.32 39.95 39.91 40.26 40.08 39.58 39.17 39.18 38.80 38.94 39.20 41.92
32.69 31.43 30.95 29.39 28.42 23.77 27.72 31.75 30.47 27.95 29.45 30.02 29.20 30.18 31.59 32.25 34.18 36.14 35.86 34.35 34.67 36.16 35.95 35.26 35.73 35.98 36.17 37.07 37.20 37.65 39.12 40.78 40.07 39.42 39.50 39.83 39.87 39.22 39.16 38.72 37.86 37.42 38.83 39.58
34.58 32.78 29.67 28.29 28.80 29.71 26.83 29.00 27.79 25.73 26.09 30.31 29.88 30.94 32.37 34.11 35.07 34.85 36.02 36.17 35.77 36.86 37.08 36.00 36.65 36.02 36.46 36.63 37.47 37.69 38.93 40.44 40.00 39.22 39.65 40.49 40.37 39.65 39.26 38.33 37.85 37.82 37.47 37.63
32.16 32.85 32.13 29.19 24.34 24.33 28.17 30.62 32.01 31.10 24.08 32.03 31.95 31.30 31.78 33.23 26.72 30.80 35.81 36.28 36.75 38.19 37.93 35.92 36.67 36.03 36.05 36.59 37.67 37.32 38.18 39.43 39.29 39.17 40.02 40.97 41.43 40.56 39.68 39.40 38.54 38.43 37.88 37.28
30.67 30.10 29.35 30.16 27.44 30.02 31.24 31.59 32.76 23.67 26.00 32.76 33.19 33.18 33.04 30.41 32.07 34.69 36.24 35.99 37.48 37.90 37.50 37.01 36.67 34.62 35.47 36.99 37.30 36.24 37.59 38.50 39.45 41.85 41.63 41.20 41.75 41.49 40.81 40.43 40.24 39.63 38.62 37.90
30.26 30.26 30.51 27.50 24.62 24.67 32.99 31.72 26.27 31.38 34.08 33.87 34.34 34.79 33.53 34.02 34.59 34.78 35.08 35.79 37.28 37.42 36.14 36.67 35.43 34.38 35.81 36.98 36.85 36.33 36.95 40.39 42.26 42.04 41.24 40.36 40.55 40.83 40.87 40.37 40.12 40.35 40.24 37.94
30.69 32.85 33.30 31.12 31.49 33.37 34.04 33.22 35.19 34.99 33.48 34.30 34.75 35.65 34.89 33.91 33.66 34.26 34.48 35.08 36.83 37.20 35.60 36.33 35.32 34.33 35.54 36.66 36.96 36.62 38.62 41.68 42.34 40.54 40.49 40.21 39.97 39.89 40.40 39.81 38.96 38.81 39.45 38.71
32.25 32.32 30.81 29.44 32.47 31.99 32.99 34.47 34.99 35.46 34.94 36.11 36.93 35.62 35.37 33.40 34.11 33.81 34.14 34.98 36.37 36.35 35.26 35.17 35.19 33.81 34.23 36.03 37.00 38.28 39.04 42.63 41.51 38.88 38.69 40.42 39.41 39.38 39.00 39.59 39.35 37.96 37.40 37.43
34.29 31.87 31.92 31.46 32.51 32.38 33.46 34.67 34.69 35.32 36.38 36.76 36.39 36.06 35.11 34.67 34.05 33.98 33.87 34.95 36.74 36.08 35.76 35.03 34.76 34.25 34.27 35.79 36.72 39.13 39.51 42.73 40.30 39.20 38.80 38.85 39.35 39.19 38.95 38.36 38.26 37.90 38.21 38.00
33.73 33.24 31.52 32.61 35.11 34.61 34.40 35.22 35.42 34.91 35.65 35.68 35.01 34.99 35.86 35.63 34.18 34.43 33.98 35.84 36.91 35.84 35.22 34.05 34.51 34.65 34.55 35.48 36.53 38.80 40.65 42.90 40.60 38.13 38.95 38.57 38.42 38.43 38.36 38.71 38.45 39.97 39.71 39.71
MSLP
1014.00 1014.50 1015.92 1016.80 1017.10 1017.07 1016.44 1015.93 1015.66 1016.72 1018.65 1019.57 1021.30 1023.54 1025.14 1025.89 1025.69 1025.63 1025.46 1024.83 1024.32 1023.89 1023.51 1023.10 1022.63 1022.12 1021.38 1020.88 1020.13 1019.62 1019.02 1018.56 1018.02 1017.26 1016.59 1015.86 1015.13 1014.75 1014.25 1013.72 1013.33 1012.91 1012.39 1011.83
1014.73 1016.64 1018.31 1018.44 1018.17 1017.39 1016.75 1016.59 1016.93 1017.30 1018.19 1019.56 1021.45 1023.54 1025.30 1025.87 1025.76 1025.80 1025.38 1024.82 1024.41 1023.92 1023.32 1022.74 1022.19 1021.72 1021.20 1020.50 1019.83 1019.28 1018.72 1018.10 1017.55 1016.89 1016.23 1015.59 1014.83 1014.25 1013.75 1013.21 1012.85 1012.55 1012.04 1011.62
1016.85 1019.22 1019.39 1018.99 1019.04 1018.27 1017.42 1017.98 1018.29 1018.52 1018.37 1019.48 1020.97 1022.80 1024.58 1025.48 1025.83 1025.81 1025.37 1024.96 1024.60 1024.15 1023.47 1022.81 1022.09 1021.43 1020.92 1020.26 1019.67 1019.11 1018.49 1017.77 1017.13 1016.51 1015.77 1015.03 1014.36 1013.67 1012.93 1012.28 1011.81 1011.48 1011.23 1010.89
1019.12 1020.21 1019.99 1019.96 1020.04 1020.01 1018.24 1018.95 1018.92 1018.49 1018.49 1018.72 1020.75 1021.49 1023.83 1025.26 1025.52 1025.45 1024.98 1024.94 1024.68 1024.14 1023.57 1022.86 1022.02 1021.39 1020.83 1020.12 1019.54 1018.97 1018.12 1017.37 1016.61 1016.02 1015.35 1014.59 1013.71 1012.76 1012.19 1011.79 1011.32 1010.89 1010.61 1010.33
1021.04 1021.36 1021.46 1021.20 1021.77 1021.35 1020.12 1019.46 1018.36 1018.59 1018.74 1019.07 1020.39 1021.14 1023.65 1024.85 1025.39 1025.38 1025.23 1025.14 1024.67 1024.17 1023.43 1022.65 1022.01 1021.35 1020.71 1019.73 1019.08 1018.29 1017.55 1016.84 1016.31 1015.68 1015.37 1014.59 1013.39 1012.45 1011.50 1010.88 1010.40 1010.05 1009.85 1009.60
1021.72 1022.65 1023.30 1023.34 1022.42 1022.37 1021.32 1018.71 1017.91 1018.62 1018.60 1018.33 1020.47 1021.74 1023.74 1025.63 1026.31 1026.03 1025.59 1025.41 1024.75 1024.06 1023.40 1022.85 1022.13 1021.19 1020.23 1019.53 1018.70 1017.92 1017.16 1016.29 1015.95 1015.89 1014.90 1014.06 1013.23 1012.23 1011.26 1010.37 1009.75 1009.24 1008.91 1008.64
1021.83 1023.09 1023.98 1024.19 1022.61 1022.38 1022.07 1019.84 1018.40 1018.54 1018.49 1018.68 1020.22 1021.33 1024.92 1026.23 1026.28 1026.70 1026.09 1025.47 1024.81 1024.14 1023.37 1022.48 1021.57 1020.66 1019.98 1019.02 1018.36 1017.61 1016.82 1016.11 1015.82 1015.16 1014.28 1013.49 1012.57 1011.72 1010.80 1009.99 1009.05 1008.32 1007.82 1007.40
1022.30 1022.97 1024.86 1025.64 1025.47 1025.07 1023.85 1023.23 1023.03 1022.60 1021.00 1020.74 1020.95 1022.33 1025.04 1026.17 1026.64 1026.98 1026.72 1025.92 1025.14 1024.32 1023.61 1022.41 1021.70 1020.74 1019.86 1019.08 1018.52 1017.94 1017.20 1016.32 1015.43 1014.48 1013.49 1012.56 1011.61 1010.72 1009.94 1009.16 1008.55 1007.92 1007.31 1006.73
1024.11 1024.75 1026.13 1026.63 1026.55 1025.82 1024.99 1025.31 1026.48 1025.26 1023.48 1022.74 1021.79 1023.62 1025.29 1025.55 1026.58 1026.91 1026.63 1026.02 1025.16 1024.35 1023.41 1022.48 1021.55 1020.71 1020.10 1019.44 1018.92 1017.82 1016.67 1015.83 1014.90 1013.82 1012.63 1011.51 1010.56 1009.71 1008.89 1008.09 1007.42 1006.85 1006.54 1006.22
1025.90 1025.46 1026.52 1027.11 1027.08 1027.18 1027.23 1027.47 1026.96 1026.58 1026.01 1024.70 1023.20 1023.88 1025.84 1025.91 1026.30 1026.57 1026.35 1025.93 1025.15 1024.20 1023.40 1022.08 1021.63 1020.84 1020.30 1019.80 1018.63 1017.69 1016.77 1015.62 1014.44 1013.24 1012.00 1010.72 1009.56 1008.58 1007.70 1006.96 1006.18 1005.60 1005.27 1005.19
1026.94 1026.42 1026.77 1027.19 1028.61 1028.86 1028.17 1028.46 1028.50 1029.00 1028.76 1028.55 1026.50 1025.77 1027.44 1027.63 1027.65 1027.19 1026.71 1026.14 1025.33 1024.38 1023.21 1022.46 1021.61 1021.24 1020.65 1019.70 1018.68 1017.73 1016.60 1015.42 1014.09 1012.76 1011.36 1009.96 1008.57 1007.38 1006.30 1005.54 1004.79 1004.30 1004.09 1004.05
1028.18 1027.51 1027.06 1028.79 1030.17 1030.53 1030.70 1030.73 1030.68 1030.72 1030.61 1030.09 1030.20 1028.11 1027.71 1028.16 1028.25 1028.15 1027.17 1026.23 1025.50 1024.60 1023.71 1022.87 1022.08 1021.65 1020.67 1019.69 1018.86 1017.83 1016.56 1015.31 1013.96 1012.45 1010.87 1009.29 1007.74 1006.46 1005.47 1004.53 1003.39 1002.75 1002.64 1002.94
1029.05 1027.89 1027.63 1029.32 1030.70 1030.95 1031.35 1032.22 1032.57 1032.66 1032.58 1031.23 1031.09 1028.39 1028.80 1029.21 1028.77 1028.64 1027.50 1026.57 1025.79 1024.73 1023.98 1023.16 1022.59 1022.02 1021.03 1020.17 1019.28 1018.07 1016.70 1015.24 1013.74 1012.19 1010.54 1009.05 1007.82 1006.50 1005.09 1003.57 1002.03 1000.77 1000.85 1001.76
1030.01 1028.94 1028.90 1029.70 1030.51 1031.68 1031.88 1032.89 1033.37 1033.30 1032.86 1032.34 1031.36 1030.32 1030.36 1029.82 1029.34 1028.46 1027.72 1027.16 1025.91 1025.50 1024.73 1023.87 1023.41 1022.56 1021.62 1020.81 1019.78 1018.32 1016.79 1015.28 1013.60 1011.98 1010.61 1009.36 1008.11 1006.89 1005.42 1003.80 1002.27 1000.74 1000.53 1001.25
1030.05 1029.41 1029.82 1030.73 1031.43 1031.89 1032.44 1032.97 1033.49 1033.94 1033.77 1033.52 1032.35 1031.62 1030.82 1030.72 1030.20 1029.31 1028.40 1027.10 1026.21 1025.45 1024.79 1024.51 1024.18 1023.11 1022.39 1021.24 1020.01 1018.52 1016.96 1015.28 1013.63 1012.23 1010.97 1009.79 1008.66 1007.47 1006.12 1004.68 1003.20 1002.09 1001.44 1001.28
1030.74 1030.24 1030.49 1030.75 1031.66 1032.15 1032.52 1033.08 1033.58 1033.49 1033.65 1033.57 1032.88 1032.04 1032.24 1031.51 1030.56 1029.60 1028.72 1027.36 1026.78 1026.01 1025.55 1025.33 1024.76 1023.87 1023.00 1021.89 1020.54 1019.04 1017.34 1015.65 1014.20 1012.84 1011.65 1010.52 1009.36 1008.18 1006.97 1005.73 1004.52 1003.26 1002.12 1001.26
1031.08 1030.87 1030.79 1030.29 1031.63 1032.13 1032.47 1032.67 1033.44 1033.80 1033.67 1033.99 1033.37 1033.19 1032.71 1031.78 1030.82 1029.93 1028.60 1028.40 1027.55 1026.68 1026.26 1025.94 1025.39 1024.63 1023.72 1022.50 1021.21 1019.64 1017.99 1016.28 1014.95 1013.69 1012.45 1011.26 1010.21 1009.14 1008.01 1006.93 1005.74 1004.53 1003.39 1001.94
1031.62 1031.62 1031.68 1031.11 1031.45 1031.71 1032.59 1033.41 1034.04 1034.19 1033.99 1034.21 1034.12 1033.46 1033.27 1032.45 1031.59 1030.18 1029.56 1029.20 1028.15 1027.39 1026.96 1026.60 1026.09 1025.12 1024.11 1022.95 1021.62 1020.17 1018.52 1016.96 1015.69 1014.45 1013.25 1012.16 1011.06 1010.16 1009.20 1008.16 1007.08 1006.10 1005.06 1003.93
1032.34 1032.11 1032.18 1032.03 1031.02 1031.28 1032.81 1033.54 1034.22 1034.46 1033.92 1034.41 1034.32 1034.01 1033.06 1032.46 1031.40 1029.88 1030.10 1029.50 1028.73 1028.04 1027.64 1027.40 1026.74 1025.80 1024.57 1023.36 1022.11 1020.63 1018.97 1017.53 1016.29 1015.10 1013.99 1012.91 1011.97 1011.12 1010.36 1009.47 1008.67 1007.82 1006.90 1005.97
1032.78 1032.68 1032.43 1032.10 1031.92 1031.35 1032.56 1033.76 1034.64 1034.90 1034.17 1034.59 1034.21 1033.67 1033.16 1032.49 1031.00 1030.32 1029.95 1029.43 1028.81 1028.47 1028.06 1027.62 1027.01 1025.88 1024.97 1023.60 1022.45 1021.04 1019.50 1018.10 1016.78 1015.82 1014.90 1013.89 1012.78 1011.96 1011.29 1010.77 1010.05 1009.37 1008.61 1007.93
1032.32 1032.68 1032.47 1032.06 1032.07 1031.67 1032.85 1034.04 1034.71 1034.62 1034.82 1034.42 1034.55 1034.39 1033.97 1033.42 1033.14 1031.67 1030.73 1029.88 1029.41 1028.70 1028.18 1027.83 1027.13 1026.22 1025.34 1024.16 1023.01 1021.61 1020.21 1018.75 1017.56 1016.40 1015.74 1014.87 1013.82 1012.80 1012.19 1011.45 1010.81 1010.32 1009.84 1009.43
1031.79 1032.20 1032.34 1032.75 1032.65 1032.39 1033.46 1034.36 1034.63 1034.93 1034.96 1035.02 1034.97 1034.78 1034.41 1033.86 1032.93 1032.09 1030.98 1030.20 1029.36 1028.67 1028.40 1027.98 1027.46 1026.54 1025.66 1024.57 1023.51 1022.18 1020.72 1019.44 1017.81 1017.17 1016.40 1015.78 1015.05 1014.13 1013.31 1012.64 1011.81 1011.02 1010.47 1010.24
1031.69 1031.96 1032.21 1032.24 1032.02 1032.92 1033.87 1034.43 1034.95 1035.35 1035.37 1035.31 1035.22 1035.01 1034.63 1033.99 1033.24 1032.29 1031.59 1030.66 1029.87 1029.46 1029.20 1028.71 1028.09 1027.06 1026.10 1025.06 1024.11 1022.78 1021.43 1019.85 1018.26 1017.84 1017.13 1016.59 1016.13 1015.47 1014.59 1013.77 1013.20 1012.43 1011.69 1011.12
1031.71 1032.43 1032.26 1032.46 1032.41 1033.35 1034.14 1034.86 1035.27 1035.50 1035.83 1036.02 1035.64 1035.04 1034.68 1034.18 1033.47 1032.60 1031.61 1030.84 1030.15 1030.01 1029.56 1029.17 1028.40 1027.56 1026.62 1025.62 1024.57 1023.51 1022.13 1020.34 1018.98 1018.48 1018.01 1017.33 1016.90 1016.49 1016.15 1015.33 1014.65 1014.16 1013.45 1012.80
1031.32 1032.21 1031.88 1032.02 1032.64 1033.70 1034.42 1034.90 1035.45 1035.75 1036.02 1035.80 1035.56 1035.16 1034.75 1034.36 1033.53 1032.89 1032.14 1031.39 1030.86 1030.47 1030.23 1029.90 1029.09 1028.38 1027.33 1026.25 1025.05 1023.91 1022.62 1020.84 1019.79 1019.18 1018.77 1018.28 1017.86 1017.37 1016.98 1016.97 1016.51 1015.89 1015.61 1015.00
1031.11 1030.76 1031.20 1031.08 1031.81 1033.02 1033.91 1035.02 1035.70 1035.92 1036.02 1035.78 1035.50 1035.10 1034.84 1034.31 1033.62 1033.06 1032.44 1031.79 1031.37 1030.85 1030.64 1030.38 1029.66 1028.91 1027.90 1026.81 1025.59 1024.45 1023.24 1021.60 1020.55 1020.07 1019.52 1019.30 1018.82 1018.36 1017.93 1017.52 1017.41 1017.46 1017.07 1016.62
Wind_Speed
10 12 12 13 12 6 9 10 12 17 7 11 5 7 6 4 9 14 17 20 23 23 23 23 23 23 23 23 23 23 22 22 17 12 13 12 12 12 12 11 16 17 16 16
8 16 10 4 12 13 7 10 14 6 2 7 8 7 4 4 10 15 19 22 24 24 26 26 26 25 24 26 25 24 24 22 18 13 12 13 13 12 12 12 14 17 17 17
18 9 5 7 12 17 4 13 16 19 17 3 4 9 6 4 9 16 20 23 23 25 27 27 27 27 25 27 25 24 23 22 20 20 13 12 13 12 12 12 12 12 16 15
10 11 10 9 11 16 7 17 16 14 9 5 3 3 7 4 13 20 25 24 24 26 26 26 27 27 27 25 22 24 22 22 18 19 16 21 16 16 13 13 13 13 17 18
6 9 15 12 11 14 9 25 20 8 8 6 5 8 9 7 17 26 26 26 26 26 28 29 29 27 27 23 23 21 22 21 20 19 19 18 19 15 13 13 17 16 15 17
11 6 9 11 9 5 22 23 7 4 5 4 6 7 10 9 18 25 26 28 28 28 29 29 27 26 24 23 21 21 22 21 19 22 23 19 22 19 16 16 14 13 12 12
8 16 5 19 9 1 22 20 5 4 5 7 18 9 10 9 20 22 26 28 29 29 28 27 28 27 25 25 24 21 23 24 24 23 22 21 20 20 19 18 14 15 12 11
8 1 14 15 15 9 13 14 7 8 10 12 10 10 7 7 21 23 24 27 28 28 26 27 28 27 25 26 27 26 25 25 23 22 22 20 20 13 13 15 13 12 12 12
9 6 5 8 9 16 9 8 5 7 7 8 6 8 8 21 23 25 27 28 27 27 26 30 28 26 27 25 27 26 25 24 23 22 19 19 17 17 16 18 15 12 13 12
7 3 5 3 4 12 8 8 1 4 9 10 10 6 11 25 27 28 30 29 28 27 29 27 27 26 25 25 25 26 25 25 24 22 19 17 18 17 16 15 17 16 14 14
6 3 5 2 9 11 7 7 5 3 3 5 9 5 12 22 25 29 30 29 28 29 28 28 26 25 25 25 25 24 24 24 23 21 20 20 18 17 15 14 15 15 14 13
6 6 4 5 5 5 10 7 6 4 6 5 4 6 19 24 23 27 29 27 28 28 29 27 27 28 27 26 25 25 24 23 22 21 20 20 18 15 15 14 14 14 13 12
7 3 3 7 5 5 4 5 2 1 4 3 4 7 20 21 25 26 29 28 27 29 30 28 27 28 26 26 25 24 24 23 22 21 19 18 18 18 18 17 16 14 11 9
5 3 5 5 5 3 2 1 3 5 5 10 11 22 23 23 26 28 28 29 28 27 28 27 27 28 27 26 24 24 24 23 22 20 18 18 18 19 19 18 19 19 2 5
4 2 2 3 2 2 4 3 3 3 8 6 17 19 19 23 26 27 27 27 29 29 29 29 28 28 27 26 25 24 23 23 20 20 18 18 18 18 20 21 18 18 9 2
3 1 3 2 2 5 5 4 6 7 8 12 15 17 20 23 24 25 27 28 28 28 29 29 29 30 26 26 24 24 23 22 21 20 19 19 18 19 19 20 20 19 17 10
3 2 3 2 1 3 6 2 3 9 10 10 13 18 20 23 24 26 24 27 28 28 28 28 28 26 24 24 23 23 22 19 20 20 20 19 19 19 20 20 20 21 20 20
2 3 1 4 2 3 5 2 4 10 12 4 11 18 19 20 23 24 24 27 28 27 26 25 24 24 23 22 22 22 20 19 20 20 20 19 19 19 20 21 21 21 19 19
6 1 1 3 6 3 4 1 5 7 11 1 15 18 21 21 20 15 25 25 26 25 21 22 22 22 21 22 22 20 19 18 19 20 20 18 18 19 20 20 20 18 19 19
2 2 2 2 3 4 4 3 2 4 2 8 15 17 19 22 16 17 26 26 26 23 19 22 24 21 20 22 21 20 19 18 19 18 19 19 17 17 17 17 17 17 17 18
1 2 2 1 3 1 5 3 1 5 7 13 15 15 18 17 15 23 25 24 24 21 24 23 22 20 20 20 20 21 19 19 18 16 16 18 19 17 19 15 13 14 16 16
3 2 1 1 3 4 7 4 2 6 8 12 13 15 17 18 20 22 23 23 24 24 24 24 20 20 20 20 18 19 20 19 16 15 15 17 19 16 15 18 16 16 12 13
3 2 1 5 3 5 3 2 3 3 8 10 12 14 16 18 20 22 22 23 22 23 19 20 19 20 19 20 18 18 19 20 16 15 15 14 16 18 17 16 17 14 14 12
5 4 3 3 7 5 3 1 1 4 7 10 11 14 15 17 19 20 20 19 19 20 19 20 20 20 20 20 19 17 19 18 16 16 15 13 13 14 17 14 13 14 14 13
4 9 6 5 4 3 4 3 2 5 5 8 11 13 14 15 18 19 19 20 19 17 19 18 18 17 19 20 19 18 19 18 15 14 13 13 11 12 11 14 15 13 17 18
8 5 5 3 8 1 8 5 1 3 6 9 12 14 14 14 17 19 18 17 18 17 19 18 19 18 19 19 18 17 18 17 15 14 11 11 9 9 9 8 8 28 28 28
Wind_Direction
45 62 41 32 24 345 305 300 320 347 65 323 81 122 93 37 18 5 1 352 348 344 344 340 340 337 331 329 323 323 318 317 312 307 303 298 299 301 291 283 285 286 287 288
119 53 28 20 13 334 333 348 346 318 302 321 119 127 113 27 22 8 355 348 350 345 340 340 338 335 334 328 329 326 321 317 312 305 298 295 293 287 285 289 281 275 272 272
59 25 2 12 18 352 65 1 338 314 315 135 189 161 197 103 15 358 350 352 350 346 339 338 336 334 334 332 332 323 323 318 315 308 301 293 286 282 280 274 274 273 279 281
58 23 14 20 22 352 306 356 321 321 317 355 204 16 132 15 360 354 351 351 346 344 339 336 337 338 334 331 326 324 317 314 311 313 305 299 290 285 279 278 280 278 272 268
55 31 17 26 1 351 326 315 288 283 285 307 103 293 105 48 355 354 347 347 345 341 339 338 339 336 332 328 324 320 317 317 322 310 320 309 294 289 287 279 276 273 269 267
74 71 34 356 313 336 331 323 81 193 258 230 37 337 83 22 4 350 345 341 341 339 340 339 336 329 326 325 326 323 325 316 325 319 310 301 299 297 289 280 280 272 265 262
131 51 93 10 353 185 1 354 352 341 334 9 360 310 59 19 8 356 343 340 339 339 341 336 332 332 327 331 328 330 325 328 321 313 307 304 297 294 289 284 276 274 267 257
344 231 20 18 31 322 356 10 25 319 343 317 298 341 87 357 6 355 344 339 338 339 337 333 334 328 335 333 336 332 328 318 315 312 308 302 295 287 284 278 280 279 274 272
346 85 122 34 14 10 346 24 340 288 284 292 353 74 163 2 358 350 344 341 338 336 336 333 335 335 336 338 330 323 324 324 321 317 310 304 298 291 285 282 272 266 263 265
24 273 34 40 250 58 44 350 358 319 346 317 340 36 350 351 350 346 344 339 339 336 338 335 336 339 336 332 327 330 330 326 324 320 315 309 303 296 286 280 275 268 259 254
343 266 104 237 31 9 9 25 8 269 15 310 316 42 5 351 348 343 338 338 338 340 333 338 338 340 336 332 334 332 331 329 327 324 319 314 308 301 290 278 273 266 264 251
18 317 19 52 99 43 42 27 1 357 342 310 261 289 20 353 342 342 334 338 341 329 342 340 340 341 335 337 337 336 333 331 328 324 321 318 314 320 325 320 290 263 250 251
2 60 283 174 186 185 42 25 17 219 240 265 306 294 359 336 341 339 335 340 333 343 340 340 347 338 338 340 338 337 334 331 328 327 323 334 340 339 331 323 315 285 232 228
288 360 7 343 360 338 307 349 333 322 283 327 284 326 331 345 337 335 338 339 338 341 339 344 345 336 340 339 338 335 332 334 331 330 340 344 347 347 343 341 353 5 114 211
328 323 7 27 42 288 322 272 256 241 308 293 314 320 338 337 333 334 338 329 345 342 345 347 343 338 340 338 338 337 336 338 341 347 349 352 353 355 356 357 359 11 19 310
4 22 298 216 269 292 263 237 277 292 304 303 311 310 347 327 329 338 332 350 342 341 345 346 340 339 339 337 336 336 337 341 350 353 355 356 358 1 2 2 4 1 9 357
340 333 298 13 326 298 228 232 284 319 328 318 312 328 330 331 335 334 335 348 341 343 347 343 341 336 335 336 337 339 337 343 356 357 359 359 3 4 7 8 8 8 5 14
37 22 344 310 246 259 85 60 338 312 301 310 314 322 328 331 331 313 4 342 342 345 347 344 339 335 334 336 338 338 341 349 359 360 0 2 5 9 10 12 13 11 15 20
11 35 324 298 304 72 156 190 349 342 312 341 326 329 331 335 323 339 349 343 344 346 346 342 337 334 333 337 340 339 342 350 0 1 1 2 6 12 14 16 15 17 22 27
25 54 282 16 313 307 68 125 337 297 213 341 339 333 335 336 340 335 337 341 344 345 353 342 337 338 337 338 341 345 348 350 1 3 4 3 7 17 17 20 18 22 27 32
188 299 275 310 284 208 129 118 170 292 1 336 336 334 336 336 330 320 332 338 343 345 353 343 338 341 339 338 341 349 348 353 359 2 9 9 10 15 20 17 24 31 31 32
267 192 171 101 260 272 144 163 271 358 327 332 334 332 332 327 326 333 334 338 343 351 350 346 341 340 340 342 342 348 351 340 357 6 13 16 16 16 21 23 15 22 29 40
241 254 318 221 359 93 138 351 16 307 316 325 328 329 329 330 334 334 337 341 345 353 345 343 341 338 340 343 344 341 344 338 1 14 11 23 24 22 21 26 26 20 26 27
193 190 241 300 169 216 184 151 290 313 316 326 321 326 332 334 334 337 335 340 345 350 349 343 341 341 339 341 341 339 346 337 5 18 13 19 26 32 31 28 31 30 25 32
33 154 200 244 173 163 189 155 332 321 324 319 326 327 339 338 334 337 338 342 347 347 351 344 343 338 338 339 340 342 348 341 7 14 23 16 20 24 41 46 35 37 41 39
178 190 200 19 113 148 119 144 205 312 339 334 331 336 341 339 337 339 338 343 346 350 349 343 340 339 337 338 338 343 342 343 5 15 13 20 21 21 26 32 58 54 50 51